Charlottetown, Prince Edward Island

2:19 PM ADT on June 28, 2017 (GMT -0300)
Charlottetown

Weather History for CYYG - August, 2013

Change the Weather History Date:

Monday, August 12, 2013

  Actual Average Record
Temperature  
Mean Temperature 67 °F -  
Max Temperature 76 °F 69 °F 80 °F (2001)
Min Temperature 58 °F 53 °F 50 °F (2001)
Cooling Degree Days 2    
Growing Degree Days 17 (Base 50)    
Moisture  
Dew Point 56 °F    
Average Humidity 69    
Maximum Humidity 88    
Minimum Humidity 47    
Precipitation  
Precipitation 0.00 in 0.12 in - ()
Sea Level Pressure  
Sea Level Pressure 29.89 in    
Wind  
Wind Speed 8 mph ()    
Max Wind Speed 17 mph    
Max Gust Speed 21 mph    
Visibility 15.0 miles    
Events      
Averages and records for this station are not official NWS values.
T = Trace of Precipitation, MM = Missing Value Source: Averaged Metar Reports

Daily Weather History Graph

Daily Weather History Graph

Search for Another Location

Airport or City:

Trip Planner

Search our weather history database for the weather conditions in past years. The results will help you decide how hot, cold, wet, or windy it might be!

Date:

Astronomy

Aug. 12, 2013 Rise Set
Actual Time 6:07 AM ADT 8:26 PM ADT
Civil Twilight 5:34 AM ADT 8:59 PM ADT
Nautical Twilight 4:53 AM ADT 9:40 PM ADT
Astronomical Twilight 4:06 AM ADT 10:26 PM ADT
Moon 12:17 PM ADT (8/12) 10:51 PM ADT (8/12)
Length of Visible Light 15h 24m
Length of Day
14h 18m
Waxing Crescent, 31% of the Moon is Illuminated
Aug 12
Waxing Crescent
Aug 14
First Quarter
Aug 20
Full
Aug 28
Last Quarter
Sep 5
New

Hourly Weather History & Observations

Time (ADT) Temp. Dew Point Humidity Pressure Visibility Wind Dir Wind Speed Gust Speed Precip Events Conditions
12:00 AM 62.6 °F 57.2 °F 82% 29.88 in 15.0 mi WSW 9.2 mph - N/A   Partly Cloudy
1:00 AM 60.8 °F 57.2 °F 88% 29.88 in 15.0 mi SW 6.9 mph - N/A   Partly Cloudy
2:00 AM 60.8 °F 57.2 °F 88% 29.88 in 15.0 mi SW 9.2 mph - N/A   Clear
3:00 AM 60 °F 57 °F 87% 29.88 in 15 mi SW 6.9 mph - -  
3:00 AM 60.8 °F 57.2 °F 88% 29.88 in 15.0 mi SW 8.1 mph - N/A   Clear
4:00 AM 60.8 °F 57.2 °F 88% 29.87 in 15.0 mi WSW 9.2 mph - N/A   Clear
5:00 AM 59.0 °F 55.4 °F 88% 29.88 in 15.0 mi WSW 6.9 mph - N/A   Partly Cloudy
6:00 AM 59.0 °F 55.4 °F 88% 29.89 in 15.0 mi WSW 6.9 mph - N/A   Scattered Clouds
7:00 AM 59.0 °F 55.4 °F 88% 29.90 in 15.0 mi WSW 9.2 mph - N/A   Mostly Cloudy
8:00 AM 62.6 °F 57.2 °F 82% 29.91 in 15.0 mi SW 9.2 mph - N/A   Mostly Cloudy
9:00 AM 64 °F 57 °F 71% 29.92 in 15 mi WSW 10.4 mph - -   Clear
9:00 AM 64.4 °F 57.2 °F 77% 29.91 in 15.0 mi WSW 10.4 mph - N/A   Mostly Cloudy
10:00 AM 68.0 °F 57.2 °F 68% 29.91 in 15.0 mi WSW 6.9 mph - N/A   Mostly Cloudy
11:00 AM 69.8 °F 59.0 °F 68% 29.91 in 15.0 mi SSW 9.2 mph - N/A   Mostly Cloudy
12:00 PM 73.4 °F 55.4 °F 53% 29.90 in 15.0 mi SSW 8.1 mph - N/A   Scattered Clouds
1:00 PM 73.4 °F 57.2 °F 57% 29.90 in 15.0 mi SW 6.9 mph - N/A   Scattered Clouds
2:00 PM 73.4 °F 59.0 °F 61% 29.90 in 15.0 mi West 9.2 mph - N/A   Partly Cloudy
3:00 PM 75.2 °F 59.0 °F 57% 29.89 in 15.0 mi SW 11.5 mph 19.6 mph N/A   Partly Cloudy
4:00 PM 77.0 °F 57.2 °F 50% 29.88 in 15.0 mi WSW 13.8 mph 20.7 mph N/A   Partly Cloudy
5:00 PM 77.0 °F 55.4 °F 47% 29.87 in 15.0 mi WSW 17.3 mph - N/A   Partly Cloudy
6:00 PM 75.2 °F 55.4 °F 50% 29.87 in 15.0 mi SW 11.5 mph 18.4 mph N/A   Partly Cloudy
7:00 PM 73.4 °F 55.4 °F 53% 29.88 in 15.0 mi SW 12.7 mph - N/A   Partly Cloudy
8:00 PM 69.8 °F 55.4 °F 60% 29.88 in 15.0 mi SW 6.9 mph - N/A   Partly Cloudy
9:00 PM 67 °F 54 °F 52% 29.91 in 15 mi WSW 8.1 mph - -   Scattered Clouds
9:00 PM 68.0 °F 53.6 °F 60% 29.91 in 15.0 mi WSW 9.2 mph - N/A   Partly Cloudy
9:06 PM 68.0 °F 53.6 °F 60% 29.91 in 15.0 mi WSW 6.9 mph - N/A   Partly Cloudy
10:00 PM 66.2 °F 53.6 °F 64% 29.91 in 15.0 mi WSW 8.1 mph - N/A   Partly Cloudy
11:00 PM 64.4 °F 53.6 °F 68% 29.91 in 15.0 mi SW 6.9 mph - N/A   Partly Cloudy